Weather in Annolovo

Russia / Saint-Petersburg and Leningrad Oblast     59°38′02″N   30°32′28″E
temp.,
°C
wind,
m/s
gust,
m/s
humid.,
%
clouds,
%
prec.,
mm/h
press.,
hPa
HPBL,
m
11 may, tue
tue1100:00+12s51580100 0.0 1022389
03:00+11s5138499 0.0 1023345
06:00+11s41286100 0.0 1023293
09:00+16s611665 0.0 1024523
12:00+20s694965 0.0 10241211
15:00+21s68432 0.0 10231399
18:00+21s57494 0.0 10231084
21:00+15sse37740 0.0 1023113
12 may, wed
wed1200:00+12s36825 0.0 102493
03:00+10sse37850 0.0 1024127
06:00+10sse37830 0.0 1025155
09:00+16s36550 0.0 1025402
12:00+21sse45450 0.0 1024995
15:00+23s45430 0.0 10231426
18:00+23s35500 0.0 10221460
21:00+17ne00707 0.0 102111
13 may, thu
thu1300:00+15ene23780 0.0 102050
03:00+13e38850 0.0 1018146
06:00+14ese4118421 0.0 1018351
09:00+17sse5869100 0.0 1017962
12:00+19sse57455 0.0 10171522
15:00+21se46375 0.0 10151990
18:00+21ese354216 0.0 10131993
21:00+16ne2358100 0.0 101153
14 may, fri
fri1400:00+12ssw4793100 2.4 1012554
03:00+12sse2595100 3.3 1012393
06:00+10sse389618 0.0 1012318
09:00+14sse477345 0.0 1013622
12:00+17s575074 0.0 10131607
15:00+18s5852100 0.0 10131601
18:00+14se2774100 0.0 1012306
21:00+13e2676100 0.0 1011147
15 may, sat
sat1500:00+13e277846 0.0 1009192
03:00+10ese229393 0.0 100822
06:00+11e2594100 0.0 1007152
09:00+14ese2392100 1.3 1005255
12:00+17e2281100 0.4 1005647
15:00+17e2280100 1.3 1003727
18:00+18wnw018058 0.7 1002424
21:00+14n2295100 2.4 100136